Regional Weather Roundup
Issued by NWS

Home | Current Version | Previous Version | Text Only | Print | Product List | Glossary On
Versions: 1 2 3 4 5 6 7 8 9 10 11 12 13 14 15 16 17 18 19 20 21 22 23 24 25 26 27 28 29 30 31 32 33 34 35 36 37 38 39 40 41 42 43 44 45 46 47 48 49 50
000
ASUS43 KDTX 042110
RWRMI
MICHIGAN HOURLY REGIONAL WEATHER ROUNDUP
NATIONAL WEATHER SERVICE DETROIT/PONTIAC MI
500 PM EDT FRI SEP 04 2015

NOTE: "FAIR" INDICATES FEW OR NO CLOUDS BELOW 12,000 FEET WITH NO
SIGNIFICANT WEATHER AND/OR OBSTRUCTION TO VISIBILITY.

MIZ047>049-052>055-059>063-066>070-074>076-081>083-042200-
SOUTHEAST LOWER MICHIGAN

CITY           SKY/WX    TMP DP  RH WIND       PRES   REMARKS
ADRIAN           N/A     82  67  60 NW5       30.01S
ALMA           CLOUDY    74  70  88 CALM      30.03S
ANN ARBOR        N/A     82  68  62 S5        30.00F
BAD AXE        CLOUDY    76  68  75 E7        30.04F
DETROIT CITY     N/A     79  70  74 SE10      30.01F
DETROIT          N/A     82  68  62 S3        30.01S
FLINT          PTSUNNY   80  65  59 S3        30.01F
GROSSE ILE       N/A     79  72  78 SE6       30.00S
HILLSDALE        N/A     78  69  71 W5        30.03S
HOWELL         PTSUNNY   78  64  61 CALM      30.02S

CITY           SKY/WX    TMP DP  RH WIND       PRES   REMARKS
JACKSON          N/A     79  67  66 CALM      30.01F
LAMBERTVILLE     N/A     80  71  74 E5        30.01S
LANSING        CLOUDY    78  66  66 N6        30.02S
LAPEER         NOT AVBL
MASON          CLOUDY    80  64  58 NW3       30.01S
MONROE           N/A     76  70  82 E7        30.00S
MT. CLEMENS    MOSUNNY   79  71  75 SE13      30.01F
PONTIAC        PTSUNNY   81  67  62 E7        30.01F
PORT HOPE        N/A     73  70  90 E9        30.03F
PORT HURON     PTSUNNY   81  72  74 S7        30.02S
TRI CITIES     CLOUDY    75  69  81 SW5       30.03S
YPSILANTI      PTSUNNY   86  69  56 SE5       30.01S HX  90
$$
MIZ043>046-050>051-056>058-064>065-071>073-077>080-042200-
SOUTHWEST LOWER MICHIGAN

CITY           SKY/WX    TMP DP  RH WIND       PRES   REMARKS
BATTLE CREEK     N/A     80  65  59 NW9       30.02S
BENTON HARBOR    N/A     73  67  81 VRB6      30.03S
BIG RAPIDS     CLOUDY    74  69  82 CALM      30.02F
COLDWATER        N/A     79  67  67 NW3       30.02S
HOLLAND        PTSUNNY   75  66  73 W7        30.03S
GRAND RAPIDS   PTSUNNY   78  68  71 NW9       30.02S
KALAMAZOO        N/A     82  65  56 NW10      30.01S
MARSHALL         N/A     79  67  67 W7        30.01S
MUSKEGON       PTSUNNY   74  66  76 W6        30.03S
$$
MIZ016>042-042200-
NORTHERN LOWER MICHIGAN

CITY           SKY/WX    TMP DP  RH WIND       PRES   REMARKS
ALPENA         PTSUNNY   77  67  71 E12       30.08S
BEAVER ISLAND  PTSUNNY   76  66  71 E10       30.06S
BELLAIRE       CLOUDY    75  68  78 CALM      30.04F
CADILLAC       CLOUDY    72  68  87 NE5       30.05S
CHARLEVOIX     CLOUDY    75  68  79 E7        30.07F
FRANKFORT      CLOUDY    74  68  81 CALM      30.04S
GAYLORD        CLOUDY    73  69  87 CALM      30.08S
GRAYLING       LGT RAIN  70  68  94 CALM      30.08S
HARBOR SPRINGS PTSUNNY   72  71  95 CALM      30.06S
HOUGHTON LAKE  CLOUDY    73  67  81 N5        30.06F
MANISTEE       CLOUDY    72  64  78 NW7       30.04S
OSCODA           N/A     75  68  77 E8        30.04F
PELLSTON       PTSUNNY   76  69  79 E8        30.07S
TRAVERSE CITY  LGT RAIN  73  69  87 NE6       30.03F
$$
MIZ007>008-015-042200-
EASTERN UPPER MICHIGAN

CITY           SKY/WX    TMP DP  RH WIND       PRES   REMARKS
KINROSS        PTSUNNY   77  66  69 E15       30.08F
MACKINAC ISLAN   N/A     67  64  90 E10G20    30.08S
NEWBERRY         N/A     82  65  57 E14G21    30.07S
S. S. MARIE      N/A     79  67  66 SE14      30.08F
$$
MIZ004>006-011>014-085-042200-
CENTRAL UPPER MICHIGAN

CITY           SKY/WX    TMP DP  RH WIND       PRES   REMARKS
MANISTIQUE     CLOUDY    73  66  79 SE7       30.06S
ESCANABA         N/A     73  64  73 SE10      30.03S
MENOMINEE        N/A     73  63  68 E10       30.03F
SAWYER-GWINN   SUNNY     79  63  57 NE7       30.06F
$$
MIZ001>003-009>011-084-042200-
WESTERN UPPER MICHIGAN

CITY           SKY/WX    TMP DP  RH WIND       PRES   REMARKS
IRON MOUNTAIN    N/A     82  65  56 VRB5      30.03F
HOUGHTON         N/A     74  58  57 E14       30.05F
COPPER HARBOR    N/A     73  58  59 SE5       30.06S
IRONWOOD         N/A     84  64  51 S10       29.97F
$$

ABBREVIATIONS USED IN REMARKS
   TC - TEMPERATURE IN CELSIUS
  WCI - WIND CHILL INDEX
   HX - HEAT INDEX
  VSB - VISIBILITY



USA.gov is the U.S. government's official web portal to all federal, state and local government web resources and services.